Location: Coupvray
(48.8929°N, 2.7967°E)
Time: 08:28:17
(UTC+00:00)

Cosmos 407 Rocket - Pass Details

Date: 14 July 2020
Orbit: 744 x 786 km, 74.0° (Epoch: 14 August)

Event Time Altitude Azimuth Distance (km) Brightness Sun altitude
Exits shadow 00:55:10 23° 153° (SSE) 1,610 4.7 -18.2°
Maximum altitude 00:57:47 37° 103° (ESE) 1,200 4.5 -18.1°
Drops below altitude 10° 01:02:40 10° 37° (NE) 2,356 7.1 -17.9°
Sets 01:05:13 0° 30° (NNE) 3,287 8.3 -17.7°
